Location: Proctor
(47.8934°N, 114.3048°W)
Time: 10:56:17
(UTC+00:00)

Vanguard 2 - Visible Passes

Search period start: 21 June 2024 00:00
Search period end: 01 July 2024 00:00
Orbit: 552 x 2914 km, 32.9° (Epoch: 21 June)

Date Brightness Start Highest point End Pass type
(mag) Time Alt. Az. Time Alt. Az. Time Alt. Az.
23 Jun 11.4 10:07:09 10° SE 10:10:12 11° SE 10:13:27 10° ESE visible
24 Jun 11.2 10:16:47 10° SSE 10:23:32 15° SE 10:31:12 10° ESE visible
25 Jun 11.0 10:28:30 10° S 10:36:53 20° SE 10:46:56 10° E visible
26 Jun 10.9 10:40:59 10° S 10:50:20 24° SE 11:01:59 10° E visible
27 Jun 10.8 10:53:53 10° SSW 11:03:51 28° SE 11:16:40 10° E visible
28 Jun 10.9 09:06:38 10° SSE 09:10:05 12° SE 09:13:53 10° ESE visible
29 Jun 10.7 09:17:34 10° SSE 09:23:25 16° SE 09:30:30 10° ESE visible
30 Jun 10.5 09:30:40 12° S 09:36:49 20° SE 09:45:49 10° E visible
